Tracking 29489 objects as of 10-Sep-2024
HD Live streaming from Space Station
objects crossing your sky now

STARLINK-5464

Track STARLINK-5464 now!
10-day predictions
STARLINK-5464 is classified as:


NORAD ID: 54758
Int'l Code: 2022-175A
Perigee: 545.9 km
Apogee: 547.8 km
Inclination: 53.2 °
Period: 95.4 minutes
Semi major axis: 6917 km
RCS: Unknown
Launch date: December 17, 2022
Source: United States (US)
Launch site: AIR FORCE EASTERN TEST RANGE (AFETR)
Your satellite tracking list
Your tracking list is empty




NASA's NSSDC Master Catalog

Two Line Element Set (TLE):
1 54758U 22175A   24253.58740633  .00001858  00000-0  13480-3 0  9999
2 54758  53.2185 330.8668 0001394  92.9883 267.1269 15.08840471 97541
Source of the keplerian elements: AFSPC